Weather History for KFSW - February, 2014

Change the Weather History Date:

Wednesday, February 19, 2014

  Actual Average Record
Temperature  
Mean Temperature 35 °F -  
Max Temperature 42 °F 40 °F 62 °F (1981)
Min Temperature 28 °F 23 °F -12 °F (1978)
Degree Days  
Heating Degree Days 30    
Moisture  
Dew Point 31 °F    
Average Humidity 77    
Maximum Humidity 100    
Minimum Humidity 57    
Precipitation  
Precipitation 0.11 in - - ()
Sea Level Pressure  
Sea Level Pressure 29.91 in    
Wind  
Wind Speed 9 mph (SW)    
Max Wind Speed 16 mph    
Max Gust Speed 21 mph    
Visibility 10 miles    
Events Rain    
Averages and records for this station are not official NWS values.
T = Trace of Precipitation, MM = Missing Value Source: NWS Daily Summary

Daily Weather History Graph

Daily Weather History Graph

Search for Another Location

Airport or City:

Trip Planner

Search our weather history database for the weather conditions in past years. The results will help you decide how hot, cold, wet, or windy it might be!

Date:

Astronomy

Feb. 19, 2014 Rise Set
Actual Time 6:53 AM CST 5:45 PM CST
Civil Twilight 6:25 AM CST 6:12 PM CST
Nautical Twilight 5:54 AM CST 6:44 PM CST
Astronomical Twilight 5:22 AM CST 7:16 PM CST
Moon 10:40 PM CST (2/19) 8:58 AM CST (2/19)
Length of Visible Light 11h 47m
Length of Day
10h 51m
Waning Gibbous, 79% of the Moon is Illuminated
Feb 19
Waning Gibbous
Feb 22
Last Quarter
Mar 1
New
Mar 8
First Quarter
Mar 16
Full

Hourly Weather History & Observations

Time (CST) Temp. Windchill Dew Point Humidity Pressure Visibility Wind Dir Wind Speed Gust Speed Precip Events Conditions
12:15 AM 37.4 °F 29.8 °F 30.2 °F 75% 29.81 in 10.0 mi WNW 11.5 mph - N/A   Clear
12:35 AM 37.4 °F 29.3 °F 30.2 °F 75% 29.82 in 10.0 mi West 12.7 mph - N/A   Clear
12:55 AM 37.4 °F 28.2 °F 32.0 °F 81% 29.82 in 10.0 mi WNW 16.1 mph 20.7 mph N/A   Clear
1:15 AM 37.4 °F 29.3 °F 32.0 °F 81% 29.82 in 10.0 mi WNW 12.7 mph - N/A   Clear
1:35 AM 37.4 °F 29.3 °F 32.0 °F 81% 29.83 in 10.0 mi WNW 12.7 mph - N/A   Clear
1:55 AM 37.4 °F 29.3 °F 32.0 °F 81% 29.83 in 10.0 mi WNW 12.7 mph - N/A   Clear
2:15 AM 37.4 °F 28.9 °F 32.0 °F 81% 29.85 in 10.0 mi West 13.8 mph 17.3 mph N/A   Clear
2:35 AM 37.4 °F 29.3 °F 32.0 °F 81% 29.86 in 10.0 mi West 12.7 mph - N/A   Clear
2:55 AM 37.4 °F 29.3 °F 32.0 °F 81% 29.87 in 10.0 mi WNW 12.7 mph 18.4 mph N/A   Clear
3:15 AM 37.4 °F 29.3 °F 32.0 °F 81% 29.87 in 10.0 mi WNW 12.7 mph 17.3 mph N/A   Clear
3:35 AM 37.4 °F 29.3 °F 32.0 °F 81% 29.87 in 10.0 mi WNW 12.7 mph - N/A   Clear
3:55 AM 35.6 °F 28.0 °F 32.0 °F 87% 29.87 in 10.0 mi West 10.4 mph - N/A   Clear
4:15 AM 35.6 °F 28.0 °F 30.2 °F 81% 29.88 in 10.0 mi WNW 10.4 mph - N/A   Clear
4:35 AM 35.6 °F 28.0 °F 30.2 °F 81% 29.88 in 10.0 mi WNW 10.4 mph - N/A   Clear
4:55 AM 35.6 °F 28.0 °F 30.2 °F 81% 29.90 in 10.0 mi WNW 10.4 mph - N/A   Clear
5:15 AM 33.8 °F 25.8 °F 30.2 °F 87% 29.91 in 10.0 mi West 10.4 mph - N/A   Clear
5:35 AM 33.8 °F 25.8 °F 30.2 °F 87% 29.91 in 10.0 mi WNW 10.4 mph - N/A   Clear
5:55 AM 33.8 °F 26.4 °F 30.2 °F 87% 29.92 in 10.0 mi WNW 9.2 mph - N/A   Clear
6:15 AM 33.8 °F 27.0 °F 30.2 °F 87% 29.92 in 10.0 mi WNW 8.1 mph - N/A   Clear
6:35 AM 32.0 °F 26.4 °F 30.2 °F 93% 29.91 in 10.0 mi NW 5.8 mph - N/A   Clear
6:55 AM 30.2 °F 25.4 °F 28.4 °F 93% 29.92 in 10.0 mi West 4.6 mph - N/A   Clear
7:15 AM 30.2 °F 25.4 °F 28.4 °F 93% 29.94 in 10.0 mi West 4.6 mph - N/A   Clear
7:35 AM 28.4 °F 23.3 °F 28.4 °F 100% 29.95 in 10.0 mi WSW 4.6 mph - N/A   Clear
7:55 AM 30.2 °F 25.4 °F 30.2 °F 100% 29.96 in 10.0 mi West 4.6 mph - N/A   Clear
8:15 AM 30.2 °F 23.4 °F 30.2 °F 100% 29.96 in 10.0 mi West 6.9 mph - N/A   Clear
8:35 AM 33.8 °F 29.6 °F 30.2 °F 87% 29.96 in 10.0 mi West 4.6 mph - N/A   Clear
8:55 AM 35.6 °F 30.7 °F 30.2 °F 81% 29.98 in 10.0 mi West 5.8 mph - N/A   Clear
9:15 AM 35.6 °F 29.9 °F 32.0 °F 87% 29.98 in 10.0 mi West 6.9 mph - N/A   Clear
9:35 AM 37.4 °F - 32.0 °F 81% 29.98 in 10.0 mi Calm Calm - N/A   Clear
9:55 AM 37.4 °F - 32.0 °F 81% 29.98 in 10.0 mi Calm Calm - N/A   Clear
10:15 AM 37.4 °F 34.9 °F 32.0 °F 81% 29.99 in 10.0 mi NW 3.5 mph - N/A   Clear
10:35 AM 37.4 °F 34.9 °F 32.0 °F 81% 29.98 in 10.0 mi NNW 3.5 mph - N/A   Clear
10:55 AM 37.4 °F 34.9 °F 32.0 °F 81% 29.98 in 10.0 mi North 3.5 mph - N/A   Clear
11:15 AM 37.4 °F 34.9 °F 32.0 °F 81% 29.99 in 10.0 mi NNW 3.5 mph - N/A   Clear
11:35 AM 37.4 °F - 32.0 °F 81% 29.99 in 10.0 mi Calm Calm - N/A   Clear
11:55 AM 39.2 °F - 32.0 °F 75% 29.99 in 10.0 mi Calm Calm - N/A   Clear
12:15 PM 41.0 °F 37.1 °F 30.2 °F 65% 29.99 in 10.0 mi SSW 5.8 mph - N/A   Clear
12:35 PM 42.8 °F 38.6 °F 30.2 °F 61% 29.99 in 10.0 mi SSW 6.9 mph - N/A   Clear
12:55 PM 42.8 °F 37.5 °F 30.2 °F 61% 29.98 in 10.0 mi SSW 9.2 mph - N/A   Clear
1:15 PM 42.8 °F 38.0 °F 28.4 °F 57% 29.97 in 10.0 mi SSW 8.1 mph - N/A   Clear
1:35 PM 42.8 °F 37.5 °F 30.2 °F 61% 29.96 in 10.0 mi South 9.2 mph - N/A   Clear
1:55 PM 42.8 °F 37.5 °F 28.4 °F 57% 29.97 in 10.0 mi SSW 9.2 mph - N/A   Clear
2:15 PM 42.8 °F 39.3 °F 28.4 °F 57% 29.96 in 10.0 mi SSW 5.8 mph - N/A   Clear
2:35 PM 42.8 °F 38.6 °F 30.2 °F 61% 29.96 in 10.0 mi South 6.9 mph - N/A   Clear
2:55 PM 42.8 °F 40.1 °F 30.2 °F 61% 29.95 in 10.0 mi SSE 4.6 mph - N/A   Clear
3:15 PM 42.8 °F 41.1 °F 30.2 °F 61% 29.95 in 10.0 mi SE 3.5 mph - N/A   Clear
3:35 PM 42.8 °F 41.1 °F 30.2 °F 61% 29.95 in 10.0 mi SSE 3.5 mph - N/A   Clear
3:55 PM 42.8 °F 38.6 °F 30.2 °F 61% 29.93 in 10.0 mi SSE 6.9 mph - N/A   Clear
4:15 PM 41.0 °F 38.0 °F 30.2 °F 65% 29.92 in 10.0 mi SE 4.6 mph - N/A   Clear
4:35 PM 41.0 °F 38.0 °F 30.2 °F 65% 29.92 in 10.0 mi SE 4.6 mph - N/A   Clear
4:55 PM 41.0 °F 36.4 °F 30.2 °F 65% 29.91 in 10.0 mi SSE 6.9 mph - N/A   Clear
5:15 PM 41.0 °F 36.4 °F 30.2 °F 65% 29.91 in 10.0 mi SE 6.9 mph - N/A   Clear
5:30 PM 39.2 °F 34.2 °F 30.2 °F 70% 29.91 in 10.0 mi SSE 6.9 mph - N/A   Clear
5:55 PM 41.0 °F 37.1 °F 30.2 °F 65% 29.91 in 10.0 mi SE 5.8 mph - N/A   Clear
6:15 PM 39.2 °F 37.0 °F 30.2 °F 70% 29.91 in 10.0 mi SE 3.5 mph - N/A   Clear
6:55 PM 39.2 °F 35.0 °F 30.2 °F 70% 29.88 in 10.0 mi East 5.8 mph - N/A   Clear
7:35 PM 39.2 °F 33.0 °F 30.2 °F 70% 29.87 in 10.0 mi ESE 9.2 mph - N/A   Clear
7:55 PM 39.2 °F 31.6 °F 30.2 °F 70% 29.85 in 10.0 mi SE 12.7 mph - N/A   Clear
8:15 PM 39.2 °F 32.5 °F 30.2 °F 70% 29.87 in 10.0 mi SSE 10.4 mph - N/A   Clear
8:35 PM 39.2 °F 32.0 °F 30.2 °F 70% 29.87 in 10.0 mi SSE 11.5 mph - N/A   Clear
8:55 PM 39.2 °F 30.8 °F 30.2 °F 70% 29.87 in 10.0 mi SSE 15.0 mph - N/A   Scattered Clouds
9:15 PM 39.2 °F 33.0 °F 32.0 °F 75% 29.87 in 10.0 mi SSE 9.2 mph - N/A   Overcast
9:55 PM 39.2 °F 31.6 °F 33.8 °F 81% 29.83 in 10.0 mi SE 12.7 mph - N/A   Overcast
10:20 PM 37.4 °F 28.5 °F 33.8 °F 87% 29.79 in 10.0 mi ESE 15.0 mph - N/A Rain Light Rain
10:55 PM 39.2 °F 31.2 °F 35.6 °F 87% 29.78 in 10.0 mi SE 13.8 mph 19.6 mph N/A   Overcast
11:15 PM 39.2 °F 33.0 °F 35.6 °F 87% 29.79 in 10.0 mi ESE 9.2 mph - N/A Rain Light Rain
11:35 PM 39.2 °F 34.2 °F 35.6 °F 87% 29.78 in 5.0 mi ESE 6.9 mph 18.4 mph 0.06 in Rain Rain
11:55 PM 37.4 °F 29.8 °F 35.6 °F 93% 29.76 in 7.0 mi SE 11.5 mph - 0.11 in Rain Rain